Location: Mannheim
(49.4880°N, 8.4650°E)
Time: 04:15:18
(UTC+02:00)

ISS - Pass Details

Date: 20 March 2023
Orbit: 413 x 421 km, 51.6° (Epoch: 29 March)

Event Time Altitude Azimuth Distance (km) Brightness Sun altitude
Rises 20:12:52 0° 254° (WSW) 2,353 1.0 -15.8°
Reaches altitude 10° 20:14:58 10° 255° (WSW) 1,490 -0.1 -16.2°
Maximum altitude 20:18:18 82° 342° (NNW) 424 -3.8 -16.7°
Enters shadow 20:19:26 39° 67° (ENE) 643 -3.2 -16.8°
